Location: Aix-en-Ergny
(50.5839°N, 1.9996°E)
Time: 01:57:53
(UTC+00:00)

Cosmos 2327 Rocket - Pass Details

Date: 23 October 2019
Orbit: 943 x 1009 km, 83.0° (Epoch: 13 November)

Event Time Altitude Azimuth Distance (km) Brightness Sun altitude
Rises 04:13:27 0° 192° (SSW) 3,660 7.3 -21.8°
Reaches altitude 10° 04:15:58 10° 194° (SSW) 2,707 6.6 -21.4°
Maximum altitude 04:22:10 77° 280° (W) 990 4.3 -20.5°
Drops below altitude 10° 04:28:19 10° 7° (N) 2,687 7.0 -19.5°
Sets 04:30:49 0° 9° (N) 3,631 7.7 -19.1°
